Weather History for Kankakee, IL

Change the Weather History Date:

Friday, November 1, 2013

  Actual Average Record
Temperature  
Mean Temperature 47 °F -  
Max Temperature 51 °F 62 °F 78 °F (1974)
Min Temperature 43 °F 40 °F 25 °F (1988)
Degree Days  
Heating Degree Days 18    
Moisture  
Dew Point 43 °F    
Average Humidity 87    
Maximum Humidity 94    
Minimum Humidity 68    
Precipitation  
Precipitation 0.05 in - - ()
Sea Level Pressure  
Sea Level Pressure 29.63 in    
Wind  
Wind Speed 13 mph (WSW)    
Max Wind Speed 20 mph    
Max Gust Speed 30 mph    
Visibility 10 miles    
Events Rain    
Averages and records for this station are not official NWS values.
T = Trace of Precipitation, MM = Missing Value Source: NWS Daily Summary

Daily Weather History Graph

Daily Weather History Graph

Search for Another Location

Airport:

Trip Planner

Search our weather history database for the weather conditions in past years. The results will help you decide how hot, cold, wet, or windy it might be!

Date:

Astronomy

Nov. 01, 2013 Rise Set
Actual Time 7:22 AM CDT 5:46 PM CDT
Civil Twilight 6:54 AM CDT 6:15 PM CDT
Nautical Twilight 6:21 AM CDT 6:47 PM CDT
Astronomical Twilight 5:49 AM CDT 7:19 PM CDT
Moon 5:13 AM CDT (11/1) 4:40 PM CDT (11/1)
Length of Visible Light 11h 21m
Length of Day
10h 24m
Waning Crescent, 4% of the Moon is Illuminated
Nov 1
Waning Crescent
Nov 3
New
Nov 9
First Quarter
Nov 17
Full
Nov 25
Last Quarter

Hourly Weather History & Observations

Time (CDT) Temp. Windchill Dew Point Humidity Pressure Visibility Wind Dir Wind Speed Gust Speed Precip Events Conditions
12:15 AM 46.4 °F 39.0 °F 43.0 °F 88% 29.47 in 10.0 mi West 19.6 mph 29.9 mph N/A   Overcast
12:35 AM 45.9 °F 38.5 °F 42.8 °F 89% 29.48 in 10.0 mi West 18.4 mph 26.5 mph N/A   Overcast
12:55 AM 46.0 °F 39.3 °F 42.8 °F 88% 29.49 in 10.0 mi West 16.1 mph 25.3 mph N/A   Overcast
1:15 AM 46.0 °F 39.3 °F 43.0 °F 89% 29.50 in 10.0 mi West 16.1 mph 21.9 mph N/A   Overcast
1:35 AM 46.0 °F 38.8 °F 42.1 °F 86% 29.50 in 10.0 mi West 18.4 mph 26.5 mph N/A   Overcast
1:55 AM 44.6 °F 37.8 °F 41.0 °F 87% 29.50 in 10.0 mi West 15.0 mph 21.9 mph N/A   Scattered Clouds
2:15 AM 43.9 °F 38.8 °F 41.2 °F 90% 29.51 in 10.0 mi WSW 9.2 mph 16.1 mph N/A   Scattered Clouds
2:35 AM 44.6 °F 38.8 °F 41.9 °F 90% 29.52 in 10.0 mi WSW 11.5 mph - N/A   Mostly Cloudy
2:55 AM 44.6 °F 39.2 °F 42.4 °F 92% 29.51 in 10.0 mi WSW 10.4 mph - N/A   Overcast
3:15 AM 44.6 °F 37.4 °F 42.8 °F 93% 29.51 in 10.0 mi SW 16.1 mph - N/A   Overcast
3:35 AM 45.0 °F 38.5 °F 42.8 °F 92% 29.51 in 10.0 mi SW 13.8 mph - N/A   Overcast
3:55 AM 45.0 °F 38.9 °F 43.2 °F 93% 29.52 in 10.0 mi SW 12.7 mph - N/A   Overcast
4:15 AM 45.7 °F 39.5 °F 43.7 °F 93% 29.53 in 10.0 mi SW 13.8 mph 20.7 mph N/A   Overcast
4:35 AM 46.9 °F - 44.6 °F 92% 29.53 in 10.0 mi WSW 19.6 mph 26.5 mph N/A   Overcast
4:55 AM 46.9 °F - 44.6 °F 92% 29.53 in 10.0 mi WSW 17.3 mph 24.2 mph N/A   Overcast
5:15 AM 46.6 °F - 44.2 °F 92% 29.54 in 10.0 mi WSW 13.8 mph - N/A   Overcast
5:35 AM 46.4 °F 40.4 °F 44.1 °F 92% 29.56 in 10.0 mi SW 13.8 mph - N/A   Overcast
5:55 AM 45.7 °F 39.1 °F 43.7 °F 93% 29.55 in 10.0 mi WSW 15.0 mph - N/A   Mostly Cloudy
6:15 AM 45.5 °F 38.9 °F 43.3 °F 92% 29.57 in 10.0 mi SW 15.0 mph 19.6 mph N/A   Clear
6:35 AM 45.0 °F 39.3 °F 43.0 °F 93% 29.57 in 10.0 mi WSW 11.5 mph 16.1 mph N/A   Scattered Clouds
6:55 AM 45.3 °F 40.1 °F 43.3 °F 93% 29.58 in 10.0 mi SW 10.4 mph - N/A   Mostly Cloudy
7:15 AM 45.5 °F 39.9 °F 43.2 °F 92% 29.59 in 10.0 mi SW 11.5 mph 17.3 mph N/A   Overcast
7:35 AM 45.5 °F 40.8 °F 43.5 °F 93% 29.59 in 7.0 mi SW 9.2 mph - N/A   Overcast
7:55 AM 45.5 °F 39.6 °F 43.7 °F 93% 29.59 in 7.0 mi SW 12.7 mph - N/A   Overcast
8:15 AM 45.9 °F 40.4 °F 43.9 °F 93% 29.60 in 7.0 mi WSW 11.5 mph 18.4 mph N/A   Overcast
8:35 AM 46.0 °F 40.6 °F 44.1 °F 93% 29.61 in 7.0 mi WSW 11.5 mph 16.1 mph N/A   Overcast
8:55 AM 46.4 °F 41.5 °F 44.1 °F 92% 29.61 in 10.0 mi WSW 10.4 mph - N/A   Overcast
9:15 AM 47.3 °F - 44.2 °F 89% 29.61 in 10.0 mi WSW 11.5 mph 17.3 mph N/A   Overcast
9:35 AM 47.5 °F - 43.9 °F 87% 29.61 in 10.0 mi WSW 12.7 mph 17.3 mph N/A   Overcast
9:55 AM 47.5 °F - 42.1 °F 82% 29.62 in 10.0 mi West 15.0 mph 21.9 mph N/A   Overcast
10:15 AM 47.5 °F - 43.0 °F 84% 29.62 in 10.0 mi WSW 11.5 mph - N/A   Overcast
10:35 AM 47.8 °F - 42.6 °F 82% 29.62 in 10.0 mi WSW 13.8 mph - N/A   Overcast
10:55 AM 48.2 °F - 42.3 °F 80% 29.63 in 10.0 mi WSW 13.8 mph - N/A   Overcast
11:15 AM 48.4 °F - 41.9 °F 78% 29.63 in 10.0 mi SW 12.7 mph 17.3 mph N/A   Overcast
11:35 AM 50.0 °F - 42.1 °F 74% 29.63 in 10.0 mi WSW 17.3 mph - N/A   Overcast
11:55 AM 51.8 °F - 42.4 °F 70% 29.63 in 10.0 mi SW 15.0 mph 21.9 mph N/A   Mostly Cloudy
12:15 PM 50.7 °F - 40.6 °F 68% 29.63 in 10.0 mi West 15.0 mph - N/A   Overcast
12:35 PM 50.2 °F - 41.0 °F 71% 29.63 in 10.0 mi West 8.1 mph - N/A   Overcast
12:55 PM 49.6 °F - 41.9 °F 75% 29.63 in 10.0 mi WSW 12.7 mph 19.6 mph N/A   Overcast
1:15 PM 50.9 °F - 42.3 °F 72% 29.63 in 10.0 mi WSW 12.7 mph 17.3 mph N/A   Overcast
1:35 PM 49.6 °F - 41.5 °F 74% 29.63 in 10.0 mi West 11.5 mph 18.4 mph N/A   Overcast
1:55 PM 50.0 °F - 41.9 °F 74% 29.64 in 10.0 mi West 11.5 mph - N/A   Overcast
2:15 PM 50.0 °F - 43.2 °F 77% 29.64 in 10.0 mi WSW 11.5 mph 16.1 mph N/A   Overcast
2:35 PM 50.2 °F - 42.4 °F 75% 29.64 in 10.0 mi WSW 12.7 mph - N/A   Overcast
2:55 PM 49.5 °F - 42.3 °F 76% 29.65 in 10.0 mi WSW 11.5 mph 18.4 mph N/A   Overcast
3:15 PM 49.5 °F - 42.8 °F 78% 29.65 in 10.0 mi WSW 12.7 mph 18.4 mph N/A   Overcast
4:55 PM 49.1 °F - 42.8 °F 79% 29.68 in 10.0 mi West 8.1 mph - N/A   Overcast
5:15 PM 48.4 °F - 43.0 °F 82% 29.69 in 10.0 mi West 10.4 mph - N/A   Overcast
5:35 PM 47.3 °F - 43.9 °F 88% 29.69 in 7.0 mi WNW 9.2 mph - N/A Rain Light Rain
5:55 PM 46.6 °F - 43.7 °F 90% 29.70 in 10.0 mi WNW 9.2 mph - N/A   Light Drizzle
6:15 PM 46.8 °F - 43.0 °F 87% 29.71 in 10.0 mi West 9.2 mph - N/A   Overcast
6:35 PM 46.6 °F - 42.4 °F 85% 29.72 in 10.0 mi West 6.9 mph - N/A   Overcast
6:55 PM 46.4 °F 43.5 °F 43.0 °F 88% 29.73 in 10.0 mi West 5.8 mph - N/A   Overcast
7:15 PM 46.4 °F 42.4 °F 42.8 °F 87% 29.74 in 10.0 mi West 8.1 mph - N/A   Overcast
7:35 PM 46.4 °F 41.9 °F 42.6 °F 87% 29.74 in 10.0 mi West 9.2 mph - N/A Rain Rain
7:55 PM 46.0 °F 41.9 °F 43.0 °F 89% 29.75 in 10.0 mi West 8.1 mph - N/A   Light Drizzle
8:15 PM 45.9 °F 41.7 °F 43.2 °F 90% 29.75 in 10.0 mi West 8.1 mph - N/A   Light Drizzle
8:35 PM 45.7 °F 41.5 °F 43.7 °F 93% 29.75 in 7.0 mi West 8.1 mph - N/A   Drizzle
8:55 PM 45.5 °F 41.3 °F 43.7 °F 93% 29.75 in 7.0 mi West 8.1 mph - N/A   Drizzle
9:15 PM 45.5 °F 41.3 °F 43.7 °F 93% 29.76 in 7.0 mi West 8.1 mph - N/A   Light Drizzle
9:35 PM 45.5 °F 41.8 °F 43.7 °F 93% 29.76 in 7.0 mi WSW 6.9 mph - N/A Rain Light Rain
9:55 PM 45.5 °F 41.8 °F 43.7 °F 93% 29.76 in 7.0 mi WSW 6.9 mph - N/A   Drizzle
10:15 PM 45.5 °F 41.8 °F 43.9 °F 94% 29.77 in 7.0 mi West 6.9 mph - N/A   Light Drizzle
10:35 PM 45.5 °F 42.5 °F 43.7 °F 93% 29.77 in 10.0 mi West 5.8 mph - N/A   Overcast
10:55 PM 45.7 °F 42.0 °F 43.7 °F 93% 29.77 in 10.0 mi West 6.9 mph - N/A   Overcast
11:15 PM 45.7 °F 42.0 °F 43.7 °F 93% 29.77 in 10.0 mi West 6.9 mph - N/A   Overcast
11:35 PM 45.5 °F 41.8 °F 43.7 °F 93% 29.77 in 10.0 mi West 6.9 mph - N/A   Overcast
11:55 PM 44.8 °F 40.4 °F 42.8 °F 93% 29.77 in 10.0 mi West 8.1 mph - N/A   Overcast